Total_Precipitation_Accumulation
0.11 0.13 0.10 0.07 0.05 0.02 0.03 0.07 0.12 0.20 0.23 0.25 0.23 0.24 0.23 0.21 0.18 0.20 0.23 0.25 0.28 0.36 0.44 0.38 0.42 0.40 0.39 0.43 0.47 0.42 0.37 0.27 0.34 0.41 0.33 0.12 0.07 0.11 0.05 0.03 0.03 0.03 0.02
0.08 0.10 0.11 0.11 0.13 0.15 0.20 0.24 0.36 0.46 0.43 0.46 0.53 0.62 0.72 0.61 0.52 0.55 0.56 0.53 0.54 0.53 0.51 0.45 0.40 0.37 0.39 0.39 0.38 0.42 0.37 0.28 0.29 0.35 0.39 0.17 0.11 0.12 0.08 0.08 0.12 0.10 0.05
0.21 0.18 0.17 0.21 0.24 0.28 0.32 0.36 0.47 0.58 0.63 0.77 0.93 0.99 1.08 1.02 1.04 1.09 1.11 1.03 0.93 0.83 0.74 0.61 0.48 0.39 0.39 0.41 0.44 0.44 0.42 0.38 0.32 0.38 0.45 0.28 0.16 0.13 0.09 0.13 0.15 0.15 0.12
0.31 0.31 0.31 0.33 0.35 0.39 0.48 0.60 0.71 0.80 0.92 1.06 1.22 1.29 1.32 1.35 1.48 1.61 1.55 1.35 1.14 0.93 0.75 0.59 0.49 0.44 0.44 0.40 0.36 0.35 0.35 0.34 0.36 0.38 0.42 0.45 0.42 0.35 0.16 0.09 0.12 0.17 0.21
0.42 0.47 0.48 0.50 0.51 0.55 0.64 0.77 0.89 0.97 1.04 1.11 1.19 1.28 1.34 1.37 1.37 1.32 1.22 1.09 0.93 0.75 0.60 0.49 0.43 0.40 0.39 0.33 0.29 0.28 0.28 0.31 0.34 0.40 0.46 0.49 0.54 0.58 0.51 0.30 0.28 0.34 0.34
0.50 0.54 0.56 0.57 0.59 0.61 0.63 0.65 0.68 0.75 0.82 0.86 0.90 0.94 0.95 0.94 0.89 0.80 0.73 0.66 0.57 0.45 0.33 0.28 0.28 0.33 0.38 0.34 0.31 0.28 0.28 0.33 0.41 0.44 0.47 0.48 0.47 0.51 0.56 0.42 0.35 0.32 0.31
0.37 0.45 0.49 0.53 0.55 0.56 0.56 0.55 0.54 0.54 0.51 0.50 0.51 0.54 0.56 0.55 0.53 0.54 0.51 0.48 0.43 0.34 0.27 0.22 0.23 0.29 0.35 0.32 0.27 0.27 0.34 0.40 0.43 0.45 0.45 0.48 0.48 0.48 0.54 0.52 0.48 0.42 0.37
0.30 0.39 0.47 0.52 0.53 0.50 0.49 0.49 0.48 0.47 0.41 0.37 0.36 0.39 0.42 0.42 0.39 0.38 0.34 0.32 0.32 0.32 0.30 0.25 0.25 0.25 0.28 0.25 0.24 0.24 0.29 0.34 0.36 0.34 0.39 0.46 0.49 0.52 0.61 0.62 0.60 0.52 0.44
0.33 0.32 0.34 0.37 0.38 0.36 0.36 0.40 0.48 0.49 0.48 0.46 0.43 0.37 0.35 0.33 0.28 0.25 0.24 0.24 0.24 0.27 0.30 0.27 0.25 0.26 0.26 0.26 0.28 0.31 0.36 0.45 0.47 0.49 0.51 0.53 0.47 0.43 0.44 0.47 0.49 0.50 0.41
0.17 0.15 0.14 0.15 0.16 0.20 0.27 0.36 0.40 0.40 0.41 0.42 0.43 0.42 0.37 0.31 0.23 0.19 0.18 0.19 0.20 0.22 0.26 0.28 0.25 0.22 0.17 0.17 0.25 0.41 0.54 0.59 0.60 0.60 0.63 0.63 0.56 0.50 0.46 0.40 0.41 0.46 0.40
0.10 0.13 0.14 0.18 0.19 0.23 0.30 0.38 0.40 0.40 0.42 0.41 0.41 0.41 0.38 0.35 0.28 0.22 0.19 0.18 0.20 0.22 0.23 0.24 0.22 0.17 0.14 0.12 0.14 0.25 0.39 0.44 0.42 0.41 0.46 0.46 0.40 0.36 0.32 0.29 0.33 0.38 0.35
0.14 0.16 0.16 0.22 0.27 0.27 0.28 0.33 0.37 0.42 0.51 0.60 0.67 0.69 0.61 0.51 0.41 0.30 0.24 0.21 0.21 0.22 0.19 0.16 0.15 0.12 0.12 0.14 0.18 0.20 0.25 0.26 0.21 0.17 0.15 0.13 0.11 0.12 0.11 0.13 0.16 0.18 0.23
0.11 0.10 0.13 0.20 0.25 0.28 0.31 0.35 0.38 0.42 0.51 0.66 0.90 1.01 0.93 0.78 0.59 0.40 0.25 0.18 0.16 0.16 0.14 0.11 0.11 0.13 0.16 0.20 0.23 0.20 0.15 0.09 0.05 0.04 0.03 0.02 0.02 0.02 0.02 0.03 0.03 0.04 0.08
0.08 0.07 0.11 0.16 0.21 0.28 0.36 0.41 0.44 0.43 0.50 0.61 0.77 0.83 0.76 0.65 0.53 0.34 0.20 0.14 0.11 0.11 0.12 0.13 0.15 0.18 0.19 0.19 0.15 0.10 0.06 0.03 0.03 0.02 0.01 0.01 0.01 0.01 0.01 0.01 0.01 0.02 0.08
0.10 0.08 0.11 0.15 0.18 0.22 0.29 0.31 0.27 0.22 0.27 0.39 0.44 0.49 0.43 0.32 0.26 0.21 0.16 0.13 0.12 0.12 0.12 0.12 0.14 0.14 0.13 0.10 0.06 0.04 0.03 0.02 0.01 0.01 0.00 0.00 0.00 0.00 0.00 0.00 0.00 0.01 0.06
0.07 0.07 0.11 0.16 0.16 0.15 0.16 0.12 0.11 0.11 0.15 0.21 0.25 0.30 0.31 0.23 0.17 0.13 0.09 0.07 0.07 0.09 0.10 0.11 0.10 0.07 0.05 0.04 0.02 0.01 0.01 0.00 0.00 0.00 0.00 0.00 0.00 0.00 0.00 0.00 0.00 0.00 0.01
0.02 0.02 0.05 0.06 0.05 0.04 0.04 0.05 0.06 0.09 0.14 0.18 0.22 0.29 0.29 0.25 0.20 0.13 0.10 0.07 0.06 0.05 0.05 0.05 0.03 0.01 0.00 0.00 0.00 0.00 0.00 0.00 0.00 0.00 0.00 0.00 0.00 0.00 0.01 0.01 0.00 0.00 0.00
0.00 0.00 0.00 0.00 0.00 0.01 0.01 0.02 0.04 0.08 0.12 0.17 0.20 0.23 0.25 0.22 0.19 0.16 0.16 0.14 0.09 0.05 0.03 0.02 0.00 0.00 0.00 0.00 0.00 0.00 0.00 0.00 0.00 0.00 0.00 0.00 0.00 0.00 0.00 0.01 0.01 0.00 0.00
0.00 0.00 0.00 0.00 0.00 0.00 0.01 0.03 0.06 0.06 0.08 0.13 0.19 0.21 0.22 0.20 0.18 0.18 0.17 0.13 0.09 0.06 0.04 0.02 0.00 0.00 0.00 0.00 0.00 0.00 0.00 0.00 0.00 0.00 0.00 0.00 0.00 0.00 0.00 0.01 0.02 0.02 0.01
0.00 0.00 0.00 0.00 0.00 0.01 0.03 0.06 0.06 0.06 0.08 0.12 0.17 0.21 0.21 0.21 0.20 0.19 0.15 0.12 0.10 0.07 0.04 0.02 0.01 0.00 0.00 0.00 0.00 0.00 0.00 0.01 0.00 0.00 0.00 0.00 0.00 0.00 0.00 0.01 0.01 0.01 0.01
0.00 0.01 0.01 0.01 0.03 0.05 0.07 0.06 0.05 0.06 0.05 0.08 0.12 0.18 0.18 0.20 0.21 0.20 0.16 0.12 0.10 0.07 0.06 0.05 0.02 0.01 0.00 0.00 0.00 0.00 0.01 0.01 0.00 0.00 0.00 0.00 0.00 0.00 0.00 0.00 0.00 0.00 0.00
0.00 0.01 0.01 0.02 0.03 0.04 0.03 0.03 0.02 0.02 0.03 0.06 0.11 0.15 0.16 0.12 0.12 0.16 0.14 0.12 0.10 0.06 0.05 0.04 0.02 0.01 0.00 0.00 0.00 0.00 0.00 0.00 0.00 0.00 0.00 0.00 0.00 0.00 0.00 0.00 0.00 0.00 0.00
0.01 0.02 0.02 0.03 0.06 0.06 0.05 0.04 0.02 0.02 0.02 0.05 0.10 0.14 0.13 0.11 0.13 0.12 0.10 0.09 0.07 0.05 0.04 0.02 0.02 0.01 0.00 0.00 0.00 0.00 0.00 0.00 0.00 0.00 0.00 0.00 0.00 0.00 0.00 0.00 0.00 0.00 0.00
0.03 0.03 0.04 0.06 0.09 0.11 0.10 0.06 0.03 0.03 0.03 0.06 0.09 0.10 0.11 0.10 0.10 0.12 0.10 0.07 0.05 0.04 0.03 0.02 0.02 0.02 0.01 0.01 0.01 0.01 0.01 0.00 0.00 0.00 0.00 0.00 0.00 0.00 0.00 0.00 0.00 0.00 0.00
0.04 0.04 0.07 0.10 0.13 0.17 0.17 0.11 0.05 0.04 0.04 0.05 0.07 0.08 0.09 0.10 0.10 0.09 0.09 0.09 0.09 0.05 0.03 0.02 0.02 0.03 0.04 0.03 0.04 0.04 0.02 0.01 0.01 0.00 0.00 0.00 0.00 0.00 0.00 0.00 0.00 0.00 0.00
0.05 0.06 0.08 0.10 0.12 0.17 0.22 0.18 0.11 0.06 0.04 0.05 0.05 0.06 0.06 0.08 0.08 0.08 0.03 0.02 0.03 0.01 0.00 0.01 0.01 0.01 0.01 0.00 0.00 0.00 0.00 0.00 0.00 0.00 0.00 0.00 0.00 0.00 0.00 0.00 0.00 0.00 0.00